Location: Gombori
(14.9797°N, 2.9419°W)
Time: 00:25:03
(UTC+00:00)

Fermi - Pass Details

Date: 29 July 2021
Orbit: 523 x 539 km, 25.6° (Epoch: 20 September)

Event Time Altitude Azimuth Distance (km) Brightness Sun altitude
Rises 19:06:23 0° 240° (WSW) 2,632 7.9 -6.2°
Reaches altitude 10° 19:08:39 10° 236° (WSW) 1,743 6.9 -6.7°
Maximum altitude 19:12:37 61° 156° (SSE) 589 3.8 -7.6°
Drops below altitude 10° 19:16:36 10° 75° (ENE) 1,742 5.9 -8.5°
Enters shadow 19:17:31 - 74° (ENE) 2,097 6.3 -8.7°
